User: anonymous   Login
Location: Unspecified
(0.0000°N, 0.0000°E)
Time: 21:55:04
(UTC+00:00)
Language:

STARLINK-32945 - Orbit

View from above orbital plane
View from above orbital plane
View from above satellite
View from above satellite

Ground track
Ground track

The orbit is defined by the following mean orbital elements,

1 63118U          26145.42044602 +.00000000 +00000-0 +68862-3 0 00005
2 63118  43.0010 299.2862 0001448 283.7870  76.2821 15.27591742    08
Epoch (UTC): 25 May 2026 10:05:26
Eccentricity: 0.0001448
inclination: 43.0010°
perigee height: 482 km
apogee height: 484 km
right ascension of ascending node: 299.2862°
argument of perigee: 283.7870°
revolutions per day: 15.27591742
mean anomaly at epoch: 76.2821°

The dashed part of the orbit path shows where the satellite is in the earth's shadow,  

DLR